Williamsburg, VA

1:13 PM EST on February 07, 2016 (GMT -0500)
Williamsburg-jamestown

Weather History for KJGG - January, 2014

Change the Weather History Date:

Thursday, January 30, 2014

  Actual Average Record
Temperature  
Mean Temperature 20 °F -  
Max Temperature 35 °F 51 °F 75 °F (2013)
Min Temperature 6 °F 26 °F 6 °F (1977)
Degree Days  
Heating Degree Days 44    
Moisture  
Dew Point 10 °F    
Average Humidity 69    
Maximum Humidity 93    
Minimum Humidity 28    
Precipitation  
Precipitation 0.05 in - - ()
Sea Level Pressure  
Sea Level Pressure 30.38 in    
Wind  
Wind Speed 1 mph (ENE)    
Max Wind Speed 7 mph    
Max Gust Speed -    
Visibility 10 miles    
Events      
Averages and records for this station are not official NWS values.
T = Trace of Precipitation, MM = Missing Value Source: NWS Daily Summary

Daily Weather History Graph

Daily Weather History Graph

Search for Another Location

Airport or City:

Trip Planner

Search our weather history database for the weather conditions in past years. The results will help you decide how hot, cold, wet, or windy it might be!

Date:

Astronomy

Jan. 30, 2014 Rise Set
Actual Time 7:11 AM EST 5:29 PM EST
Civil Twilight 6:43 AM EST 5:56 PM EST
Nautical Twilight 6:12 AM EST 6:28 PM EST
Astronomical Twilight 5:41 AM EST 6:58 PM EST
Moon 6:36 AM EST (1/30) 5:37 PM EST (1/30)
Length of Visible Light 11h 13m
Length of Day
10h 17m
Waning Crescent, 0% of the Moon is Illuminated
Jan 30
Waning Crescent
Jan 30
New
Feb 6
First Quarter
Feb 14
Full
Feb 22
Last Quarter

Hourly Weather History & Observations

Time (EST) Temp. Windchill Dew Point Humidity Pressure Visibility Wind Dir Wind Speed Gust Speed Precip Events Conditions
12:15 AM 12.2 °F - 8.6 °F 85% 30.40 in 10.0 mi Calm Calm - N/A   Unknown
12:35 AM 10.4 °F - 6.8 °F 85% 30.40 in 10.0 mi Calm Calm - N/A   Unknown
12:55 AM 12.2 °F - 8.6 °F 85% 30.40 in 10.0 mi Calm Calm - N/A   Unknown
1:15 AM 10.4 °F - 8.6 °F 92% 30.40 in 10.0 mi Calm Calm - N/A   Unknown
1:35 AM 10.4 °F - 8.6 °F 92% 30.40 in 10.0 mi Calm Calm - N/A   Unknown
1:55 AM 10.4 °F - 6.8 °F 85% 30.41 in 10.0 mi Calm Calm - N/A   Unknown
2:15 AM 10.4 °F - 6.8 °F 85% 30.42 in 10.0 mi Calm Calm - N/A   Unknown
2:35 AM 10.4 °F - 6.8 °F 85% 30.42 in 10.0 mi Calm Calm - N/A   Unknown
2:55 AM 8.6 °F - 5.0 °F 85% 30.41 in 10.0 mi Calm Calm - N/A   Unknown
3:15 AM 8.6 °F - 6.8 °F 92% 30.42 in 10.0 mi Calm Calm - N/A   Unknown
3:35 AM 8.6 °F - 5.0 °F 85% 30.42 in 10.0 mi Calm Calm - N/A   Unknown
3:55 AM 8.6 °F - 5.0 °F 85% 30.42 in 10.0 mi Calm Calm - N/A   Unknown
4:15 AM 6.8 °F - 3.2 °F 85% 30.41 in 10.0 mi Calm Calm - N/A   Unknown
4:35 AM 6.8 °F - 3.2 °F 85% 30.42 in 10.0 mi Calm Calm - N/A   Unknown
4:55 AM 6.8 °F - 3.2 °F 85% 30.42 in 10.0 mi Calm Calm - N/A   Unknown
5:15 AM 6.8 °F - 3.2 °F 85% 30.43 in 10.0 mi Calm Calm - N/A   Unknown
5:35 AM 6.8 °F - 3.2 °F 85% 30.43 in 10.0 mi Calm Calm - N/A   Unknown
5:55 AM 6.8 °F -0.1 °F 3.2 °F 85% 30.44 in 10.0 mi North 3.5 mph - N/A   Unknown
6:15 AM 6.8 °F -2.0 °F 1.4 °F 79% 30.44 in 10.0 mi NNE 4.6 mph - N/A   Unknown
6:35 AM 6.8 °F -0.1 °F 1.4 °F 79% 30.46 in 10.0 mi NNE 3.5 mph - N/A   Unknown
6:55 AM 6.8 °F - 1.4 °F 79% 30.47 in 10.0 mi Calm Calm - N/A   Unknown
7:15 AM 6.8 °F - 3.2 °F 85% 30.47 in 10.0 mi Calm Calm - N/A   Unknown
7:35 AM 6.8 °F - 1.4 °F 79% 30.47 in 10.0 mi Calm Calm - N/A   Unknown
7:55 AM 6.8 °F - 3.2 °F 85% 30.47 in 10.0 mi Calm Calm - N/A   Unknown
8:15 AM 8.6 °F - 5.0 °F 85% 30.48 in 10.0 mi Calm Calm - N/A   Unknown
8:35 AM 10.4 °F 4.0 °F 8.6 °F 92% 30.48 in 10.0 mi NE 3.5 mph - N/A   Unknown
8:55 AM 15.8 °F 10.2 °F 12.2 °F 86% 30.48 in 10.0 mi NE 3.5 mph - N/A   Unknown
9:15 AM 19.4 °F - 17.6 °F 93% 30.48 in 10.0 mi Calm Calm - N/A   Unknown
9:35 AM 23.0 °F - 17.6 °F 80% 30.48 in 10.0 mi Calm Calm - N/A   Unknown
9:55 AM 26.6 °F - 17.6 °F 69% 30.49 in 10.0 mi Calm Calm - N/A   Unknown
10:15 AM 28.4 °F 23.3 °F 15.8 °F 59% 30.48 in 10.0 mi ENE 4.6 mph - N/A   Unknown
10:35 AM 30.2 °F - 14.0 °F 51% 30.48 in 10.0 mi Calm Calm - N/A   Unknown
10:55 AM 30.2 °F 23.4 °F 15.8 °F 55% 30.48 in 10.0 mi East 6.9 mph - N/A   Clear
11:15 AM 32.0 °F - 15.8 °F 51% 30.47 in 10.0 mi Calm Calm - N/A   Clear
11:35 AM 33.8 °F 27.7 °F 12.2 °F 41% 30.46 in 10.0 mi East 6.9 mph - 0.01 in   Clear
11:55 AM 33.8 °F 29.6 °F 12.2 °F 41% 30.45 in 10.0 mi ENE 4.6 mph - 0.01 in   Clear
12:15 PM 33.8 °F - 12.2 °F 41% 30.43 in 10.0 mi Calm Calm - 0.01 in   Clear
12:35 PM 33.8 °F 30.8 °F 10.4 °F 38% 30.41 in 10.0 mi ENE 3.5 mph - 0.02 in   Clear
12:55 PM 33.8 °F - 8.6 °F 35% 30.40 in 10.0 mi Calm Calm - 0.02 in   Clear
1:15 PM 33.8 °F - 6.8 °F 32% 30.39 in 10.0 mi Calm Calm - 0.01 in   Clear
1:35 PM 35.6 °F 32.8 °F 6.8 °F 30% 30.38 in 10.0 mi East 3.5 mph - 0.02 in   Clear
1:55 PM 35.6 °F - 6.8 °F 30% 30.37 in 10.0 mi Calm Calm - 0.02 in   Clear
2:15 PM 35.6 °F 31.7 °F 6.8 °F 30% 30.37 in 10.0 mi East 4.6 mph - N/A   Clear
2:35 PM 35.6 °F 32.8 °F 8.6 °F 33% 30.36 in 10.0 mi East 3.5 mph - N/A   Clear
2:55 PM 35.6 °F - 5.0 °F 28% 30.36 in 10.0 mi Calm Calm - N/A   Clear
3:15 PM 35.6 °F 31.7 °F 6.8 °F 30% 30.35 in 10.0 mi South 4.6 mph - N/A   Clear
3:35 PM 35.6 °F 30.7 °F 8.6 °F 33% 30.35 in 10.0 mi South 5.8 mph - N/A   Clear
3:55 PM 33.8 °F 27.7 °F 8.6 °F 35% 30.35 in 10.0 mi South 6.9 mph - N/A   Clear
4:15 PM 33.8 °F 29.6 °F 8.6 °F 35% 30.34 in 10.0 mi SSE 4.6 mph - N/A   Clear
4:35 PM 33.8 °F - 8.6 °F 35% 30.33 in 10.0 mi Calm Calm - N/A   Clear
4:55 PM 33.8 °F - 10.4 °F 38% 30.33 in 10.0 mi Calm Calm - N/A   Clear
5:15 PM 32.0 °F - 10.4 °F 41% 30.32 in 10.0 mi Calm Calm - N/A   Clear
5:35 PM 28.4 °F 24.6 °F 14.0 °F 55% 30.31 in 10.0 mi SSE 3.5 mph - N/A   Clear
5:55 PM 26.6 °F - 14.0 °F 59% 30.30 in 10.0 mi Calm Calm - N/A   Unknown
6:15 PM 24.8 °F - 15.8 °F 69% 30.30 in 10.0 mi Calm Calm - N/A   Unknown
6:35 PM 24.8 °F - 15.8 °F 69% 30.30 in 10.0 mi Calm Calm - N/A   Unknown
6:55 PM 24.8 °F - 15.8 °F 69% 30.29 in 10.0 mi Calm Calm - N/A   Unknown
7:15 PM 24.8 °F 20.5 °F 17.6 °F 74% 30.29 in 10.0 mi ESE 3.5 mph - N/A   Unknown
7:35 PM 23.0 °F - 17.6 °F 80% 30.27 in 10.0 mi Calm Calm - N/A   Unknown
7:55 PM 21.2 °F - 15.8 °F 80% 30.28 in 10.0 mi Calm Calm - N/A   Unknown
8:15 PM 21.2 °F - 15.8 °F 80% 30.27 in 10.0 mi Calm Calm - N/A   Unknown
8:35 PM 21.2 °F - 15.8 °F 80% 30.29 in 10.0 mi Calm Calm - N/A   Unknown
8:55 PM 21.2 °F - 17.6 °F 86% 30.29 in 10.0 mi Calm Calm - N/A   Unknown
9:15 PM 21.2 °F - 17.6 °F 86% 30.27 in 10.0 mi Calm Calm - N/A   Unknown
9:35 PM 21.2 °F - 17.6 °F 86% 30.26 in 10.0 mi Calm Calm - N/A   Unknown
9:55 PM 19.4 °F - 17.6 °F 93% 30.28 in 10.0 mi Calm Calm - N/A   Unknown
10:15 PM 19.4 °F - 17.6 °F 93% 30.27 in 10.0 mi Calm Calm - N/A   Unknown
10:35 PM 19.4 °F - 17.6 °F 93% 30.28 in 10.0 mi Calm Calm - N/A   Unknown
10:55 PM 19.4 °F - 17.6 °F 93% 30.27 in 10.0 mi Calm Calm - N/A   Unknown
11:15 PM 19.4 °F 14.3 °F 17.6 °F 93% 30.26 in 10.0 mi North 3.5 mph - N/A   Unknown
11:35 PM 21.2 °F 13.6 °F 19.4 °F 93% 30.27 in 10.0 mi NNW 5.8 mph - N/A   Unknown
11:55 PM 23.0 °F - 19.4 °F 86% 30.26 in 10.0 mi Calm Calm - N/A   Unknown